| time (UTC) | temp F | wind direction | speed knots | gust knots | rain 1hr in | rain 24hr in | rain mn in | humidity % | barometer mb |
| 20260906051519 | 49 | 252 | 0.0 | 1.7 | 0.00 | 0.00 | 0.00 | 11 | 1003.8 |
| 20260906050015 | 49 | 32 | 0.0 | 7.0 | 0.00 | 0.00 | 0.00 | 1 | 1003.7 |
| 20260906044513 | 49 | 274 | 0.0 | 2.6 | 0.00 | 0.00 | 0.00 | 1 | 1003.6 |
| 20260906043016 | 50 | 337 | 0.0 | 0.9 | 0.00 | 0.00 | 0.00 | 1 | 1003.5 |
| 20260906041503 | 50 | 295 | 0.0 | 6.1 | 0.00 | 0.00 | 0.00 | 1 | 1003.2 |
| 20260906040059 | 50 | 311 | 0.0 | 0.0 | 0.00 | 0.00 | 0.00 | 1 | 1003.1 |
| 20260906034603 | 50 | 304 | 0.0 | 0.0 | 0.00 | 0.00 | 0.00 | 1 | 1002.8 |
| 20260906033050 | 50 | 326 | 0.0 | 0.9 | 0.00 | 0.00 | 0.00 | 1 | 1002.5 |
| 20260906031544 | 50 | 64 | 0.0 | 0.0 | 0.00 | 0.00 | 0.00 | 1 | 1002.3 |
| 20260906030043 | 50 | 285 | 0.0 | 0.0 | 0.00 | 0.00 | 0.00 | 1 | 1002.2 |
| 20260906024539 | 50 | 212 | 0.0 | 0.9 | 0.00 | 0.00 | 0.00 | 1 | 1002.1 |
| 20260906023033 | 50 | 265 | 0.0 | 0.0 | 0.00 | 0.00 | 0.00 | 1 | 1001.9 |
| 20260906021537 | 50 | 262 | 0.0 | 0.0 | 0.00 | 0.00 | 0.00 | 1 | 1001.7 |
| 20260906020024 | 50 | 67 | 0.0 | 0.0 | 0.00 | 0.00 | 0.00 | 1 | 1001.5 |
| 20260906014519 | 50 | 30 | 0.0 | 0.0 | 0.00 | 0.00 | 0.00 | 1 | 1001.4 |
| 20260906013015 | 50 | 355 | 0.0 | 0.0 | 0.00 | 0.00 | 0.00 | 1 | 1001.3 |
| 20260906011511 | 50 | 300 | 0.0 | 0.0 | 0.00 | 0.00 | 0.00 | 1 | 1001.1 |
| 20260906010006 | 50 | 298 | 0.0 | 0.0 | 0.00 | 0.00 | 0.00 | 1 | 1001.0 |
| 20260906004502 | 50 | 300 | 0.0 | 0.0 | 0.00 | 0.00 | 0.00 | 1 | 1000.9 |
| 20260906003058 | 50 | 307 | 0.0 | 0.9 | 0.00 | 0.00 | 0.00 | 1 | 1000.7 |
| 20260906001602 | 50 | 32 | 0.0 | 0.0 | 0.00 | 0.00 | 0.00 | 1 | 1000.6 |
| 20260906000049 | 49 | 32 | 0.0 | 0.0 | 0.00 | 0.00 | 0.00 | 1 | 1000.5 |
| 20260905234545 | 49 | 223 | 0.0 | 0.0 | 0.00 | 0.00 | 0.00 | 1 | 1000.2 |
| 20260905233041 | 49 | 223 | 0.0 | 0.0 | 0.00 | 0.00 | 0.00 | 1 | 1000.1 |
| 20260905231535 | 49 | 223 | 0.0 | 0.0 | 0.00 | 0.00 | 0.00 | 1 | 1000.1 |
| 20260905230034 | 49 | 223 | 0.0 | 0.0 | 0.00 | 0.00 | 0.00 | 1 | 1000.0 |
| 20260905224526 | 50 | 224 | 0.0 | 0.0 | 0.00 | 0.00 | 0.00 | 1 | 999.9 |
| 20260905223039 | 50 | 224 | 0.0 | 0.0 | 0.00 | 0.00 | 0.00 | 1 | 999.8 |
| 20260905221521 | 50 | 24 | 0.0 | 0.0 | 0.00 | 0.00 | 0.00 | 1 | 999.7 |
| 20260905220013 | 50 | 32 | 0.0 | 0.0 | 0.00 | 0.00 | 0.00 | 1 | 999.6 |
| 20260905214512 | 51 | 32 | 0.0 | 0.0 | 0.00 | 0.00 | 0.00 | 1 | 999.5 |
| 20260905213004 | 51 | 32 | 0.0 | 0.0 | 0.00 | 0.00 | 0.00 | 1 | 999.4 |
| 20260905211609 | 52 | 32 | 0.0 | 0.0 | 0.00 | 0.00 | 0.00 | 1 | 999.3 |
| 20260905210115 | 52 | 32 | 0.0 | 0.0 | 0.00 | 0.00 | 0.00 | 1 | 999.1 |
| 20260905204550 | 52 | 32 | 0.0 | 0.0 | 0.00 | 0.00 | 0.00 | 1 | 998.9 |
| 20260905203047 | 52 | 32 | 0.0 | 0.0 | 0.00 | 0.00 | 0.00 | 1 | 998.8 |
| 20260905201542 | 52 | 32 | 0.0 | 0.0 | 0.00 | 0.00 | 0.00 | 1 | 998.6 |
| 20260905200106 | 52 | 32 | 0.0 | 0.0 | 0.00 | 0.00 | 0.00 | 1 | 998.5 |
| 20260905194534 | 52 | 32 | 0.0 | 0.0 | 0.00 | 0.00 | 0.00 | 1 | 998.5 |
| 20260905193036 | 52 | 32 | 0.0 | 0.0 | 0.00 | 0.00 | 0.00 | 1 | 998.3 |
| 20260905191526 | 53 | 32 | 0.0 | 0.0 | 0.00 | 0.00 | 0.00 | 1 | 998.2 |
| 20260905190025 | 53 | 32 | 0.0 | 0.0 | 0.00 | 0.00 | 0.00 | 1 | 998.2 |
| 20260905184530 | 54 | 32 | 0.0 | 0.0 | 0.00 | 0.01 | 0.00 | 1 | 998.2 |
| 20260905183011 | 54 | 32 | 0.0 | 0.0 | 0.00 | 0.01 | 0.00 | 1 | 998.1 |
| 20260905181508 | 54 | 32 | 0.0 | 0.0 | 0.00 | 0.01 | 0.00 | 1 | 998.0 |
| 20260905180008 | 54 | 32 | 0.0 | 0.0 | 0.00 | 0.01 | 0.00 | 1 | 998.0 |
| 20260905174608 | 54 | 32 | 0.0 | 0.0 | 0.00 | 0.01 | 0.00 | 1 | 997.8 |
| 20260905173055 | 55 | 32 | 0.0 | 0.0 | 0.00 | 0.01 | 0.00 | 1 | 997.8 |
| 20260905171550 | 55 | 32 | 0.0 | 0.0 | 0.00 | 0.01 | 0.00 | 1 | 997.7 |
| 20260905170046 | 55 | 32 | 0.0 | 0.0 | 0.00 | 0.01 | 0.00 | 1 | 997.5 |
| 20260905164544 | 55 | 32 | 0.0 | 0.0 | 0.00 | 0.01 | 0.00 | 1 | 997.3 |
| 20260905163038 | 56 | 32 | 0.0 | 0.0 | 0.00 | 0.01 | 0.00 | 1 | 997.2 |
| 20260905161532 | 56 | 32 | 0.0 | 0.0 | 0.00 | 0.01 | 0.00 | 1 | 997.0 |
| 20260905160028 | 57 | 32 | 0.0 | 0.0 | 0.00 | 0.01 | 0.00 | 1 | 996.8 |
| 20260905154527 | 57 | 32 | 0.0 | 0.0 | 0.00 | 0.01 | 0.00 | 1 | 996.8 |
| 20260905153027 | 57 | 32 | 0.0 | 0.0 | 0.00 | 0.01 | 0.00 | 5 | 996.6 |
| 20260905151516 | 58 | 32 | 0.0 | 0.0 | 0.00 | 0.01 | 0.00 | 19 | 996.6 |
| 20260905150019 | 58 | 32 | 0.0 | 0.0 | 0.00 | 0.01 | 0.00 | 33 | 996.5 |
| 20260905144512 | 59 | 32 | 0.0 | 1.7 | 0.00 | 0.01 | 0.00 | 41 | 996.2 |
| 20260905143002 | 59 | 312 | 0.0 | 0.9 | 0.00 | 0.01 | 0.00 | 19 | 996.0 |
| 20260905141558 | 60 | 311 | 0.0 | 0.0 | 0.00 | 0.01 | 0.00 | 29 | 995.9 |
| 20260905140054 | 60 | 279 | 0.0 | 0.0 | 0.00 | 0.01 | 0.00 | 40 | 995.8 |
| 20260905134551 | 61 | 263 | 0.0 | 3.5 | 0.00 | 0.08 | 0.00 | 40 | 995.7 |
| 20260905133044 | 61 | 295 | 0.0 | 3.5 | 0.00 | 0.08 | 0.00 | 36 | 995.8 |
| 20260905131551 | 60 | 323 | 0.0 | 2.6 | 0.00 | 0.08 | 0.00 | 26 | 995.7 |
| 20260905130036 | 59 | 281 | 0.0 | 0.9 | 0.00 | 0.08 | 0.00 | 15 | 995.7 |
| 20260905124534 | 59 | 281 | 0.0 | 0.0 | 0.00 | 0.08 | 0.00 | 24 | 995.6 |
| 20260905123053 | 60 | 296 | 0.0 | 2.6 | 0.00 | 0.08 | 0.00 | 39 | 995.5 |
| 20260905121522 | 60 | 310 | 0.0 | 1.7 | 0.00 | 0.08 | 0.00 | 21 | 995.4 |
| 20260905120024 | 59 | 141 | 0.0 | 0.0 | 0.00 | 0.08 | 0.00 | 4 | 995.3 |
| 20260905114519 | 59 | 327 | 0.0 | 0.0 | 0.00 | 0.08 | 0.00 | 1 | 995.4 |
| 20260905113010 | 59 | 330 | 0.0 | 0.0 | 0.00 | 0.08 | 0.00 | 1 | 995.3 |
| 20260905111505 | 59 | 311 | 0.0 | 0.0 | 0.00 | 0.08 | 0.00 | 1 | 995.2 |
| 20260905110004 | 59 | 279 | 0.0 | 0.9 | 0.00 | 0.08 | 0.00 | 1 | 995.3 |
| 20260905104558 | 59 | 256 | 0.0 | 0.0 | 0.00 | 0.08 | 0.00 | 1 | 995.1 |
| 20260905103058 | 60 | 256 | 0.0 | 0.0 | 0.00 | 0.08 | 0.00 | 1 | 994.9 |
| 20260905101548 | 61 | 5 | 0.0 | 2.6 | 0.00 | 0.08 | 0.00 | 1 | 994.8 |
| 20260905100054 | 61 | 321 | 0.0 | 0.0 | 0.00 | 0.08 | 0.00 | 1 | 994.7 |
| 20260905094540 | 59 | 267 | 0.0 | 0.0 | 0.00 | 0.08 | 0.00 | 1 | 994.6 |
| 20260905093035 | 59 | 231 | 0.0 | 0.0 | 0.00 | 0.08 | 0.00 | 1 | 994.7 |
| 20260905091540 | 59 | 225 | 0.0 | 0.0 | 0.00 | 0.08 | 0.00 | 1 | 994.7 |
| 20260905090026 | 58 | 254 | 0.0 | 1.7 | 0.00 | 0.08 | 0.00 | 1 | 994.5 |
| 20260905084522 | 57 | 309 | 0.0 | 0.0 | 0.00 | 0.08 | 0.00 | 1 | 994.5 |
| 20260905083018 | 56 | 245 | 0.0 | 0.0 | 0.00 | 0.08 | 0.00 | 1 | 994.5 |
| 20260905081515 | 56 | 261 | 0.0 | 0.9 | 0.00 | 0.08 | 0.00 | 1 | 994.4 |
| 20260905080022 | 55 | 279 | 0.0 | 0.0 | 0.00 | 0.08 | 0.00 | 1 | 994.4 |
| 20260905074504 | 55 | 284 | 0.0 | 0.9 | 0.00 | 0.08 | 0.00 | 1 | 994.4 |
| 20260905073059 | 55 | 291 | 0.0 | 0.0 | 0.00 | 0.08 | 0.00 | 1 | 994.3 |
| 20260905071600 | 54 | 292 | 0.0 | 0.0 | 0.00 | 0.08 | 0.00 | 1 | 994.2 |
| 20260905070055 | 52 | 292 | 0.0 | 0.0 | 0.00 | 0.08 | 0.00 | 1 | 994.2 |
| 20260905064553 | 51 | 292 | 0.0 | 0.0 | 0.00 | 0.08 | 0.00 | 1 | 994.1 |
| 20260905063044 | 50 | 292 | 0.0 | 0.0 | 0.00 | 0.08 | 0.00 | 1 | 994.1 |
| 20260905061540 | 48 | 292 | 0.0 | 0.0 | 0.00 | 0.08 | 0.00 | 1 | 994.0 |
| 20260905060046 | 46 | 292 | 0.0 | 0.0 | 0.00 | 0.08 | 0.00 | 1 | 994.0 |
| 20260905054537 | 44 | 292 | 0.0 | 0.0 | 0.00 | 0.08 | 0.00 | 1 | 994.0 |
| 20260905053027 | 43 | 292 | 0.0 | 0.0 | 0.00 | 0.08 | 0.00 | 1 | 994.0 |